Weather History for McConnell AFB, KS

Change the Weather History Date:

Saturday, January 5, 2013

  Actual Average Record
Temperature  
Mean Temperature 40 °F -  
Max Temperature 47 °F 43 °F 60 °F (2012)
Min Temperature 33 °F 23 °F 5 °F (2014)
Degree Days  
Heating Degree Days 25    
Moisture  
Dew Point 29 °F    
Average Humidity 70    
Maximum Humidity 89    
Minimum Humidity 48    
Precipitation  
Precipitation 0.00 in - - ()
Sea Level Pressure  
Sea Level Pressure 30.22 in    
Wind  
Wind Speed 13 mph (SW)    
Max Wind Speed 20 mph    
Max Gust Speed 22 mph    
Visibility 10 miles    
Events      
Averages and records for this station are not official NWS values.
T = Trace of Precipitation, MM = Missing Value Source: NWS Daily Summary

Daily Weather History Graph

Daily Weather History Graph

Search for Another Location

Airport:

Trip Planner

Search our weather history database for the weather conditions in past years. The results will help you decide how hot, cold, wet, or windy it might be!

Date:

Astronomy

Jan. 05, 2013 Rise Set
Actual Time 7:44 AM CST 5:25 PM CST
Civil Twilight 7:15 AM CST 5:54 PM CST
Nautical Twilight 6:42 AM CST 6:26 PM CST
Astronomical Twilight 6:11 AM CST 6:58 PM CST
Moon 12:56 AM CST (1/5) 12:12 PM CST (1/5)
Length of Visible Light 10h 38m
Length of Day
9h 40m
Last Quarter, 44% of the Moon is Illuminated
Jan 5
Last Quarter
Jan 11
New
Jan 18
First Quarter
Jan 26
Full
Feb 3
Last Quarter

Hourly Weather History & Observations

Time (CST) Temp. Windchill Dew Point Humidity Pressure Visibility Wind Dir Wind Speed Gust Speed Precip Events Conditions
12:55 AM 36.3 °F 28.0 °F 28.9 °F 75% 30.25 in 10.0 mi South 12.7 mph - N/A   Overcast
1:46 AM 35.6 °F 27.5 °F 30.2 °F 81% 30.24 in 10.0 mi South 11.5 mph - N/A   Mostly Cloudy
1:55 AM 36.0 °F 28.5 °F 30.6 °F 81% 30.24 in 10.0 mi South 10.4 mph - 0.00 in   Overcast
2:01 AM 35.6 °F 27.1 °F 32.0 °F 87% 30.24 in 10.0 mi South 12.7 mph - N/A   Overcast
2:55 AM 35.8 °F 26.9 °F 32.4 °F 87% 30.23 in 10.0 mi South 13.8 mph - 0.00 in   Overcast
3:55 AM 35.8 °F 27.3 °F 32.9 °F 89% 30.22 in 10.0 mi SSE 12.7 mph - N/A   Mostly Cloudy
4:55 AM 35.8 °F 26.5 °F 32.0 °F 86% 30.19 in 10.0 mi South 15.0 mph - N/A   Overcast
5:55 AM 35.6 °F 27.1 °F 32.4 °F 88% 30.19 in 10.0 mi South 12.7 mph - N/A   Overcast
6:55 AM 35.4 °F 27.3 °F 32.0 °F 87% 30.19 in 10.0 mi South 11.5 mph - N/A   Overcast
7:55 AM 36.0 °F 27.5 °F 32.5 °F 87% 30.19 in 10.0 mi South 12.7 mph - N/A   Overcast
8:55 AM 36.7 °F 28.4 °F 32.9 °F 86% 30.21 in 10.0 mi South 12.7 mph - N/A   Overcast
9:55 AM 37.6 °F 30.0 °F 33.3 °F 84% 30.21 in 10.0 mi South 11.5 mph - N/A   Overcast
10:55 AM 39.7 °F 31.5 °F 33.1 °F 77% 30.22 in 10.0 mi SSW 15.0 mph - N/A   Overcast
11:55 AM 43.2 °F 34.7 °F 30.9 °F 62% 30.18 in 10.0 mi SW 19.6 mph - N/A   Clear
12:55 PM 44.8 °F 38.0 °F 30.4 °F 57% 30.14 in 10.0 mi SW 15.0 mph - N/A   Clear
1:55 PM 46.4 °F 39.8 °F 28.6 °F 50% 30.12 in 10.0 mi SW 16.1 mph 21.9 mph N/A   Clear
2:55 PM 47.3 °F - 28.2 °F 48% 30.12 in 10.0 mi SW 17.3 mph - N/A   Clear
3:55 PM 47.3 °F - 28.4 °F 48% 30.16 in 10.0 mi WSW 13.8 mph - N/A   Clear
4:55 PM 45.7 °F 39.8 °F 27.5 °F 49% 30.18 in 10.0 mi WNW 12.7 mph - N/A   Clear
5:55 PM 39.6 °F 33.5 °F 22.6 °F 51% 30.22 in 10.0 mi West 9.2 mph - N/A   Clear
6:55 PM 35.6 °F 26.6 °F 20.3 °F 54% 30.25 in 10.0 mi WNW 13.8 mph - N/A   Clear
7:55 PM 33.4 °F 25.9 °F 20.1 °F 58% 30.26 in 10.0 mi WNW 9.2 mph - N/A   Clear
8:55 PM 33.1 °F 27.7 °F 21.0 °F 61% 30.27 in 10.0 mi WNW 5.8 mph - N/A   Clear
9:55 PM 33.6 °F 25.0 °F 22.1 °F 63% 30.28 in 10.0 mi WNW 11.5 mph - N/A   Clear
10:55 PM 34.3 °F 25.9 °F 23.4 °F 64% 30.30 in 10.0 mi WNW 11.5 mph - N/A   Clear
11:55 PM 33.1 °F 26.9 °F 24.1 °F 70% 30.30 in 10.0 mi NW 6.9 mph - N/A   Clear